Location: ????????
(54.9045°N, 39.1041°E)
Time: 02:22:11
(UTC+00:00)

COSMOS 2441 - Pass Details

Date: 14 April 2024
Orbit: 705 x 730 km, 98.2° (Epoch: 25 May)

Event Time Altitude Azimuth Distance (km) Brightness Sun altitude
Rises 23:59:07 0° 15° (NNE) 3,168 8.9 -17.9°
Reaches altitude 10° 00:01:24 10° 15° (NNE) 2,241 7.9 -17.6°
Maximum altitude 00:06:20 86° 289° (WNW) 737 4.3 -17.2°
Enters shadow 00:09:01 27° 200° (SSW) 1,365 5.3 -16.9°
